Regional Weather Roundup
Issued by NWS

Home | Current Version | Previous Version | Graphics & Text | Print | Product List | Glossary On
Versions: 1 2 3 4 5 6 7 8 9 10 11 12 13 14 15 16 17 18 19 20 21 22 23 24 25 26 27 28 29 30 31 32 33 34 35 36 37 38 39 40 41 42 43 44 45 46 47 48 49 50
000
ASUS43 KMKX 260610
RWRWI

WISCONSIN REGIONAL WEATHER ROUNDUP
NATIONAL WEATHER SERVICE MILWAUKEE/SULLIVAN WI
100 AM CDT THU APR 26 2018

NOTE: "FAIR" INDICATES FEW OR NO CLOUDS BELOW 12,000 FEET WITH NO
SIGNIFICANT WEATHER AND/OR OBSTRUCTIONS TO VISIBILITY.

WIZ001-002-006>008-014>016-023>028-260700-
NORTHWEST WISCONSIN

CITY           SKY/WX    TMP DP  RH WIND       PRES   REMARKS
SUPERIOR ARPT  FAIR      33  29  85 CALM      29.89F
6HR MIN TEMP:  31; 6HR MAX TEMP:  57;

ASHLAND        FAIR      41  24  51 S7        29.90F
6HR MIN TEMP:  32; 6HR MAX TEMP:  44;

HAYWARD        FAIR      33  24  69 CALM      29.91F
6HR MIN TEMP:  32; 6HR MAX TEMP:  56;

SIREN          FAIR      35  25  66 CALM      29.92F
6HR MIN TEMP:  35; 6HR MAX TEMP:  56;

CUMBERLAND     FAIR      34  27  75 CALM      29.93F
RICE LAKE      FAIR      33  32  95 CALM      29.94F
6HR MIN TEMP:  33; 6HR MAX TEMP:  55;

CHETEK         FAIR      32  27  80 CALM      29.94F
6HR MIN TEMP:  32; 6HR MAX TEMP:  53;

LADYSMITH      FAIR      35  29  78 CALM      29.94F
6HR MIN TEMP:  35; 6HR MAX TEMP:  55;

EAU CLAIRE     FAIR      37  27  67 CALM      29.93F
6HR MIN TEMP:  37; 6HR MAX TEMP:  57;

MENOMONIE      FAIR      41  31  66 CALM      29.94F
6HR MIN TEMP:  41; 6HR MAX TEMP:  58;

NEW RICHMOND   FAIR      36  28  72 S3        29.93F
6HR MIN TEMP:  36; 6HR MAX TEMP:  56;

OSCEOLA        FAIR      38  30  74 CALM      29.96S
6HR MIN TEMP:  38; 6HR MAX TEMP:  57;

$$

WIZ003>005-009-010-017-018-260700-
NORTH CENTRAL WISCONSIN

CITY           SKY/WX    TMP DP  RH WIND       PRES   REMARKS
MANITOWISH WTR FAIR      27  24  89 CALM      29.92F
6HR MIN TEMP:  27; 6HR MAX TEMP:  50;

ARBOR VITAE    FAIR      32  23  70 CALM      29.92S
6HR MIN TEMP:  32; 6HR MAX TEMP:  52;

WOODRUFF       FAIR      32  23  70 CALM      29.92S
6HR MIN TEMP:  32; 6HR MAX TEMP:  52;

RHINELANDER    FAIR      31  22  69 CALM      29.93F
6HR MIN TEMP:  30; 6HR MAX TEMP:  52; 6HR PCP: TRACE;

EAGLE RIVER    FAIR      29  23  79 CALM      29.92F
6HR MIN TEMP:  28; 6HR MAX TEMP:  50;

LAND O LAKES   FAIR      27  23  84 CALM      29.93F
6HR MIN TEMP:  27; 6HR MAX TEMP:  50;

PHILLIPS       FAIR      29  25  82 CALM      29.92F
6HR MIN TEMP:  29; 6HR MAX TEMP:  53;

TOMAHAWK       FAIR      28  24  84 CALM      29.94S
6HR MIN TEMP:  28; 6HR MAX TEMP:  51;

MEDFORD        FAIR      36  27  71 CALM      29.93F
6HR MIN TEMP:  33; 6HR MAX TEMP:  52;

MERRILL        FAIR      30  26  85 CALM      29.94F
6HR MIN TEMP:  29; 6HR MAX TEMP:  54;

$$

WIZ029-030-035-036-043>047-260700-
CENTRAL WISCONSIN

CITY           SKY/WX    TMP DP  RH WIND       PRES   REMARKS
WAUSAU         FAIR      35  26  69 E5        29.92F WCI  31
6HR MIN TEMP:  35; 6HR MAX TEMP:  55;

MOSINEE        FAIR      37  27  65 CALM      29.95F
MARSHFIELD     FAIR      37  30  75 S5        29.93F WCI  33
6HR MIN TEMP:  37; 6HR MAX TEMP:  53;

STEVENS POINT  FAIR      31  28  89 CALM      29.96S
6HR MIN TEMP:  30; 6HR MAX TEMP:  53;

WAUPACA        FAIR      39  31  72 CALM      29.96S
6HR MIN TEMP:  38; 6HR MAX TEMP:  57;

WAUTOMA        FAIR      32  28  85 CALM      29.97S
6HR MIN TEMP:  32; 6HR MAX TEMP:  55;

WISC RAPIDS    FAIR      32  27  81 CALM      29.96F
6HR MIN TEMP:  32; 6HR MAX TEMP:  55;

CAMP DOUGLAS   FAIR      31  28  88 CALM      29.95F
6HR MIN TEMP:  31; 6HR MAX TEMP:  58;

$$

WIZ011>013-019>022-031-037>040-048>050-260700-
NORTHEAST WISCONSIN

CITY           SKY/WX    TMP DP  RH WIND       PRES   REMARKS
ANTIGO         FAIR      32  31  96 CALM      29.94S
6HR MIN TEMP:  32; 6HR MAX TEMP:  51;

SHAWANO        FAIR      36  32  84 CALM      29.94F
6HR MIN TEMP:  36; 6HR MAX TEMP:  57;

OCONTO         FAIR      29  27  92 CALM      29.95F
6HR MIN TEMP:  29; 6HR MAX TEMP:  46;

STURGEON BAY   FAIR      36  27  69 S5        29.96F WCI  32
6HR MIN TEMP:  36; 6HR MAX TEMP:  44;

GREEN BAY      FAIR      38  30  73 S5        29.96F WCI  34
6HR MIN TEMP:  38; 6HR MAX TEMP:  53;

MANITOWOC      FAIR      35  28  75 CALM      29.97F
6HR MIN TEMP:  35; 6HR MAX TEMP:  43;

APPLETON       FAIR      39  32  75 S5        29.94S
CLINTONVILLE   FAIR      37  29  73 CALM      29.94F
6HR MIN TEMP:  37; 6HR MAX TEMP:  55;

OSHKOSH        FAIR      39  33  79 SW9       29.95F WCI  33
6HR MIN TEMP:  37; 6HR MAX TEMP:  51;

$$

WIZ032>034-041-042-053>061-260700-
SOUTHWEST WISCONSIN

CITY           SKY/WX    TMP DP  RH WIND       PRES   REMARKS
LA CROSSE      FAIR      44  33  65 SE5       29.95F
6HR MIN TEMP:  42; 6HR MAX TEMP:  60;

SPARTA         FAIR      31  27  86 CALM      29.96F
6HR MIN TEMP:  31; 6HR MAX TEMP:  58;

VIROQUA        FAIR      46  28  50 CALM      29.95F
6HR MIN TEMP:  45; 6HR MAX TEMP:  57;

BOSCOBEL       FAIR      37  31  78 CALM      29.98S
6HR MIN TEMP:  36; 6HR MAX TEMP:  63;

PRAIRIE DU CHI FAIR      39  28  63 E3        29.97F
6HR MIN TEMP:  39; 6HR MAX TEMP:  60;

PLATTEVILLE    FAIR      45  29  53 CALM      29.97F
6HR MIN TEMP:  44; 6HR MAX TEMP:  60;

$$

WIZ056-057-062-063-064-067-068-260700-
SOUTH CENTRAL WISCONSIN

CITY           SKY/WX    TMP DP  RH WIND       PRES   REMARKS
REEDSBURG      FAIR      37  32  82 CALM      29.96F
6HR MIN TEMP:  37; 6HR MAX TEMP:  57;

BARABOO/DELLS  FAIR      38  25  59 S5        29.96S WCI  35
6HR MIN TEMP:  36; 6HR MAX TEMP:  56;

LONE ROCK      FAIR      35  30  82 CALM      29.97S
6HR MIN TEMP:  34; 6HR MAX TEMP:  60;

MINERAL POINT  FAIR      45  30  57 CALM      29.97S
MADISON        FAIR      41  32  70 S7        29.98R
6HR MIN TEMP:  41; 6HR MAX TEMP:  58;

MIDDLETON      FAIR      43  33  68 S5        29.99S
6HR MIN TEMP:  40; 6HR MAX TEMP:  59;

WATERTOWN      FAIR      36  31  83 CALM      29.98S
6HR MIN TEMP:  36; 6HR MAX TEMP:  53;

MONROE         FAIR      37  32  81 SE6       29.98R WCI  33
JANESVILLE     FAIR      37  30  75 CALM      29.99S
$$

WIZ051-052-058>065-066-070>072-260700-
SOUTHEAST WISCONSIN

CITY           SKY/WX    TMP DP  RH WIND       PRES   REMARKS
MILWAUKEE      FAIR      38  27  64 CALM      29.98F
6HR MIN TEMP:  36; 6HR MAX TEMP:  43;

WAUKESHA       FAIR      34  28  80 S3        29.98F
MILWAUKEE/TIMM FAIR      34  27  75 CALM      29.98F
RACINE         FAIR      34  29  82 CALM      30.00F
6HR MIN TEMP:  31; 6HR MAX TEMP:  42;

BURLINGTON     FAIR      32  29  88 CALM      29.98F
6HR MIN TEMP:  30; 6HR MAX TEMP:  46;

KENOSHA        FAIR      32  26  78 SW3       29.98F
6HR MIN TEMP:  32; 6HR MAX TEMP:  44;

FOND DU LAC    FAIR      36  30  79 S5        29.96F WCI  32
6HR MIN TEMP:  35; 6HR MAX TEMP:  51;

SHEBOYGAN      FAIR      32  30  92 SW5       29.96F WCI  27
6HR MIN TEMP:  31; 6HR MAX TEMP:  45;

WEST BEND      FAIR      32  30  93 CALM      29.97F
JUNEAU         FAIR      36  30  79 CALM      29.98S
6HR MIN TEMP:  35; 6HR MAX TEMP:  52;

$$

LSZ147-162-260700-
LAKE SUPERIOR

STATION/POSITION TIME  TEMP    WIND        PRES    WAVE
                       AIR SEA DIR/SP/G            HT/PER
                 (UTC) (F)     (DEG/KT/KT) (MB)    (FT/S)
DEVILS ISLAND    0600   43     220/  4/  4 1012.3F
SAXON HARBOR     0540   37     180/  3/  6 1012.2F
$$

LMZ867-665-643>646-260700-
LAKE MICHIGAN

STATION/POSITION TIME  TEMP    WIND        PRES    W



USA.gov is the U.S. government's official web portal to all federal, state and local government web resources and services.